Weather History for Randolph AFB, TX

Change the Weather History Date:

Friday, December 16, 2011

  Actual Average Record
Temperature  
Mean Temperature 53 °F -  
Max Temperature 57 °F 61 °F 73 °F (1997)
Min Temperature 49 °F 39 °F 28 °F (1999)
Degree Days  
Heating Degree Days 12    
Growing Degree Days 3 (Base 50)    
Moisture  
Dew Point 47 °F    
Average Humidity 82    
Maximum Humidity 90    
Minimum Humidity 68    
Precipitation  
Precipitation 0.01 in - - ()
Sea Level Pressure  
Sea Level Pressure 30.25 in    
Wind  
Wind Speed 13 mph (NNE)    
Max Wind Speed 21 mph    
Max Gust Speed 26 mph    
Visibility 10 miles    
Events Rain    
Averages and records for this station are not official NWS values.
T = Trace of Precipitation, MM = Missing Value Source: NWS Daily Summary

Daily Weather History Graph

Daily Weather History Graph

Search for Another Location

Airport:

Trip Planner

Search our weather history database for the weather conditions in past years. The results will help you decide how hot, cold, wet, or windy it might be!

Date:

Astronomy

Dec. 16, 2011 Rise Set
Actual Time 7:20 AM CST 5:36 PM CST
Civil Twilight 6:54 AM CST 6:02 PM CST
Nautical Twilight 6:24 AM CST 6:32 PM CST
Astronomical Twilight 5:55 AM CST 7:01 PM CST
Moon 11:45 PM CST (12/16) 11:30 AM CST (12/16)
Length of Visible Light 11h 08m
Length of Day
10h 15m
Waning Gibbous, 64% of the Moon is Illuminated
Dec 16
Waning Gibbous
Dec 17
Last Quarter
Dec 24
New
Jan 1
First Quarter
Jan 9
Full

Hourly Weather History & Observations

Time (CST) Temp. Dew Point Humidity Pressure Visibility Wind Dir Wind Speed Gust Speed Precip Events Conditions
12:03 AM 51.8 °F 48.2 °F 88% 30.14 in 10.0 mi NNE 11.5 mph - N/A   Overcast
12:55 AM 52.2 °F 48.4 °F 87% 30.14 in 10.0 mi North 13.8 mph 21.9 mph N/A   Overcast
1:33 AM 51.8 °F 48.2 °F 88% 30.15 in 10.0 mi North 11.5 mph - N/A Rain Light Rain
1:54 AM 51.8 °F 48.2 °F 88% 30.15 in 10.0 mi North 12.7 mph 20.7 mph N/A Rain Light Rain
2:29 AM 51.8 °F 48.2 °F 88% 30.16 in 10.0 mi North 12.7 mph - N/A   Overcast
2:55 AM 51.3 °F 48.4 °F 90% 30.16 in 10.0 mi North 13.8 mph - 0.00 in   Overcast
3:33 AM 51.8 °F 48.2 °F 88% 30.17 in 10.0 mi NNE 12.7 mph - N/A   Overcast
3:55 AM 50.9 °F 47.5 °F 88% 30.17 in 10.0 mi North 11.5 mph - N/A   Overcast
4:55 AM 50.7 °F 47.1 °F 87% 30.17 in 10.0 mi North 15.0 mph - N/A   Overcast
5:31 AM 50.0 °F 46.4 °F 87% 30.18 in 10.0 mi NNE 12.7 mph 24.2 mph N/A   Overcast
5:55 AM 50.0 °F 46.6 °F 88% 30.19 in 10.0 mi North 13.8 mph - N/A   Overcast
6:42 AM 50.0 °F 46.4 °F 87% 30.21 in 10.0 mi North 16.1 mph 23.0 mph N/A   Overcast
6:51 AM 50.0 °F 46.4 °F 87% 30.21 in 10.0 mi North 11.5 mph 24.2 mph N/A   Overcast
6:55 AM 49.6 °F 46.2 °F 88% 30.21 in 10.0 mi North 16.1 mph 20.7 mph N/A   Overcast
7:28 AM 50.0 °F 46.4 °F 87% 30.19 in 10.0 mi NNE 13.8 mph - N/A   Mostly Cloudy
7:36 AM 50.0 °F 46.4 °F 87% 30.22 in 10.0 mi NNE 12.7 mph 21.9 mph N/A   Mostly Cloudy
7:55 AM 49.8 °F 46.0 °F 87% 30.22 in 10.0 mi North 17.3 mph - N/A   Overcast
8:55 AM 49.8 °F 46.2 °F 87% 30.26 in 10.0 mi North 19.6 mph 24.2 mph N/A   Overcast
9:25 AM 50.0 °F 46.4 °F 87% 30.26 in 10.0 mi North 20.7 mph 26.5 mph N/A   Overcast
9:55 AM 50.2 °F 46.0 °F 86% 30.30 in 10.0 mi North 15.0 mph - N/A   Overcast
10:03 AM 50.0 °F 46.4 °F 87% 30.30 in 10.0 mi North 15.0 mph - N/A   Overcast
10:34 AM 50.0 °F 46.4 °F 87% 30.30 in 10.0 mi North 12.7 mph 25.3 mph N/A   Overcast
10:55 AM 50.2 °F 45.3 °F 83% 30.31 in 10.0 mi North 15.0 mph - N/A   Overcast
11:55 AM 51.1 °F 45.7 °F 82% 30.31 in 10.0 mi NNE 16.1 mph 21.9 mph N/A   Overcast
12:55 PM 52.9 °F 46.2 °F 78% 30.29 in 10.0 mi NNE 13.8 mph - N/A   Overcast
1:55 PM 53.2 °F 46.0 °F 77% 30.27 in 10.0 mi NNE 13.8 mph - N/A   Overcast
2:55 PM 54.9 °F 47.1 °F 75% 30.27 in 10.0 mi North 12.7 mph - N/A   Overcast
3:31 PM 57.2 °F 48.2 °F 72% 30.25 in 10.0 mi North 17.3 mph - N/A   Overcast
3:40 PM 55.4 °F 48.2 °F 77% 30.25 in 10.0 mi North 15.0 mph 20.7 mph N/A   Mostly Cloudy
3:55 PM 55.9 °F 47.7 °F 74% 30.26 in 10.0 mi NNE 17.3 mph 24.2 mph N/A   Mostly Cloudy
4:55 PM 55.9 °F 47.5 °F 73% 30.27 in 10.0 mi North 13.8 mph - N/A   Overcast
5:55 PM 54.5 °F 46.9 °F 76% 30.29 in 10.0 mi North 15.0 mph - N/A   Overcast
6:55 PM 54.5 °F 46.8 °F 75% 30.32 in 10.0 mi NNE 10.4 mph - N/A   Overcast
7:55 PM 53.6 °F 46.0 °F 76% 30.33 in 10.0 mi NNE 11.5 mph - N/A   Overcast
8:55 PM 53.4 °F 45.1 °F 74% 30.36 in 10.0 mi NNE 9.2 mph - N/A   Overcast
9:55 PM 52.5 °F 44.8 °F 75% 30.37 in 10.0 mi NE 11.5 mph - N/A   Mostly Cloudy
10:55 PM 52.2 °F 43.9 °F 73% 30.38 in 10.0 mi NNE 6.9 mph - N/A   Overcast
11:55 PM 51.4 °F 41.4 °F 68% 30.38 in 10.0 mi NNE 11.5 mph - N/A   Overcast